Orbital Elements
Epoch 2018 Feb. 11.0 TT = JDT 2458160.5
T 2018 Feb. 8.65131 TT Rudenko
q 2.1899396 (2000.0) P Q
n 0.12141841 Peri. 316.67523 +0.09035375 +0.96451083
a 4.0390542 Node 316.67829 -0.78622279 -0.08383306
e 0.4578088 Incl. 21.19950 -0.61130183 +0.25038145
P 8.12
From 92 observations 2002 Aug. 27-2018 Oct. 4, mean residual 0".6.
|